Location: Newark
(48.1500°N, 2.9667°W)
Time: 22:09:27
(UTC+00:00)

A-11 Canister half - Pass Details

Date: 21 January 2020
Orbit: 1524 x 1684 km, 47.3° (Epoch: 19 February)

Event Time Altitude Azimuth Distance (km) Brightness Sun altitude
Rises 02:17:45 0° 290° (WNW) 4,819 - -53.6°
Reaches altitude 10° 02:21:29 10° 279° (W) 3,855 - -53.1°
Maximum altitude 02:29:02 26° 228° (SW) 2,839 - -52.1°
Drops below altitude 10° 02:36:44 10° 177° (S) 3,923 - -51.1°
Sets 02:40:37 0° 166° (SSE) 4,918 - -50.6°
